TimeEST,TemperatureF,Dew PointF,Humidity,Sea Level PressureIn,VisibilityMPH,Wind Direction,Wind SpeedMPH,Gust SpeedMPH,PrecipitationIn,Events,Conditions,WindDirDegrees,DateUTC
12:54 AM,37.9,34.0,86,29.84,-9999.0,North,-9999.0,-,N/A,,Unknown,0,2012-11-04 04:54:00
1:54 AM,37.9,34.0,86,29.84,-9999.0,North,-9999.0,-,N/A,,Unknown,0,2012-11-04 05:54:00
1:54 AM,37.9,35.1,89,29.85,-9999.0,North,-9999.0,-,N/A,,Unknown,0,2012-11-04 06:54:00
2:54 AM,37.9,32.0,79,29.86,-9999.0,North,-9999.0,-,N/A,,Unknown,0,2012-11-04 07:54:00
3:54 AM,37.9,32.0,79,29.87,-9999.0,North,-9999.0,-,N/A,,Unknown,0,2012-11-04 08:54:00
4:54 AM,37.0,30.9,79,29.88,-9999.0,North,-9999.0,-,N/A,,Unknown,0,2012-11-04 09:54:00
5:54 AM,37.0,30.0,76,29.90,-9999.0,North,-9999.0,-,N/A,,Unknown,0,2012-11-04 10:54:00
6:54 AM,36.0,32.0,86,29.91,-9999.0,North,-9999.0,-,N/A,,Unknown,0,2012-11-04 11:54:00
7:54 AM,36.0,30.9,82,29.93,-9999.0,North,-9999.0,-,N/A,,Unknown,0,2012-11-04 12:54:00
8:54 AM,36.0,30.0,79,29.93,-9999.0,North,-9999.0,-,N/A,,Unknown,0,2012-11-04 13:54:00
9:54 AM,36.0,30.0,79,29.94,-9999.0,North,-9999.0,-,N/A,,Unknown,0,2012-11-04 14:54:00
10:54 AM,37.9,30.9,76,29.91,-9999.0,North,-9999.0,-,N/A,,Unknown,0,2012-11-04 15:54:00
11:54 AM,39.0,28.9,67,29.91,-9999.0,North,-9999.0,-,N/A,,Unknown,0,2012-11-04 16:54:00
12:54 PM,39.0,28.9,67,29.91,-9999.0,North,-9999.0,-,N/A,,Unknown,0,2012-11-04 17:54:00
1:54 PM,37.0,30.9,79,29.91,-9999.0,North,-9999.0,-,N/A,,Unknown,0,2012-11-04 18:54:00
2:54 PM,37.0,30.9,79,29.92,-9999.0,North,-9999.0,-,N/A,,Unknown,0,2012-11-04 19:54:00
3:54 PM,36.0,30.0,79,29.94,-9999.0,North,-9999.0,-,N/A,,Unknown,0,2012-11-04 20:54:00
4:54 PM,35.1,30.0,82,29.96,-9999.0,North,-9999.0,-,N/A,,Unknown,0,2012-11-04 21:54:00
5:54 PM,35.1,28.9,78,29.97,-9999.0,North,-9999.0,-,N/A,,Unknown,0,2012-11-04 22:54:00
6:54 PM,35.1,28.0,76,29.98,-9999.0,North,-9999.0,-,0.01,,Unknown,0,2012-11-04 23:54:00
7:54 PM,34.0,27.0,75,29.98,-9999.0,North,-9999.0,-,N/A,,Unknown,0,2012-11-05 00:54:00
8:54 PM,34.0,26.1,73,29.99,-9999.0,North,-9999.0,-,N/A,,Unknown,0,2012-11-05 01:54:00
9:54 PM,34.0,26.1,73,29.99,-9999.0,North,-9999.0,-,N/A,,Unknown,0,2012-11-05 02:54:00
10:54 PM,34.0,26.1,73,29.98,-9999.0,North,-9999.0,-,N/A,,Unknown,0,2012-11-05 03:54:00